Weather History for Frankfort, MI

Change the Weather History Date:

Monday, March 18, 2013

  Actual Average (KTVC) Record (KTVC)
Temperature  
Mean Temperature 28 °F 31 °F  
Max Temperature 37 °F 41 °F 82 °F (2012)
Min Temperature 18 °F 22 °F -3 °F (1959)
Degree Days  
Heating Degree Days 38 34  
Month to date heating degree days 661  
Since 1 July heating degree days 6001  
Cooling Degree Days 0 0  
Month to date cooling degree days 0  
Year to date cooling degree days 0  
Moisture  
Dew Point 18 °F    
Average Humidity 72    
Maximum Humidity 93    
Minimum Humidity 36    
Precipitation  
Precipitation 0.00 in 0.05 in 0.79 in (1994)
Month to date precipitation 1.02  
Year to date precipitation 5.34  
Sea Level Pressure  
Sea Level Pressure 29.79 in    
Wind  
Wind Speed 6 mph (ESE)    
Max Wind Speed 13 mph    
Max Gust Speed 24 mph    
Visibility 7 miles    
Events Snow    
T = Trace of Precipitation, MM = Missing Value Source: NWS Daily Summary

Daily Weather History Graph

Daily Weather History Graph

Search for Another Location

Airport:

Trip Planner

Search our weather history database for the weather conditions in past years. The results will help you decide how hot, cold, wet, or windy it might be!

Date:

Astronomy

Mar. 18, 2013 Rise Set
Actual Time 7:51 AM EDT 7:55 PM EDT
Civil Twilight 7:22 AM EDT 8:24 PM EDT
Nautical Twilight 6:48 AM EDT 8:58 PM EDT
Astronomical Twilight 6:13 AM EDT 9:33 PM EDT
Moon 11:36 AM EDT (3/18) 2:07 AM EDT (3/18)
Length of Visible Light 13h 02m
Length of Day
12h 03m
Waxing Crescent, 40% of the Moon is Illuminated
Mar 18
Waxing Crescent
Mar 19
First Quarter
Mar 27
Full
Apr 3
Last Quarter
Apr 10
New

Hourly Weather History & Observations

Time (EDT) Temp. Windchill Dew Point Humidity Pressure Visibility Wind Dir Wind Speed Gust Speed Precip Events Conditions
12:11 AM 23.0 °F 14.7 °F 7.5 °F 52% 30.15 in 10.0 mi ESE 6.9 mph - N/A   Clear
12:31 AM 22.5 °F 15.1 °F 9.1 °F 57% 30.15 in 10.0 mi ESE 5.8 mph - N/A   Clear
12:51 AM 22.1 °F 12.8 °F 9.3 °F 58% 30.13 in 10.0 mi ESE 8.1 mph - N/A   Clear
1:11 AM 21.7 °F 13.2 °F 9.5 °F 59% 30.13 in 10.0 mi ESE 6.9 mph - N/A   Clear
1:32 AM 21.2 °F 12.6 °F 9.1 °F 60% 30.12 in 10.0 mi ESE 6.9 mph - N/A   Clear
1:52 AM 20.8 °F 12.1 °F 8.6 °F 59% 30.12 in 10.0 mi ESE 6.9 mph - N/A   Clear
2:12 AM 20.3 °F 11.5 °F 8.6 °F 61% 30.10 in 10.0 mi ESE 6.9 mph - N/A   Clear
2:32 AM 20.1 °F 11.3 °F 8.6 °F 61% 30.10 in 10.0 mi ESE 6.9 mph - N/A   Clear
2:52 AM 19.8 °F 9.9 °F 9.0 °F 63% 30.09 in 10.0 mi ESE 8.1 mph - N/A   Clear
3:12 AM 19.4 °F 10.4 °F 9.1 °F 64% 30.08 in 10.0 mi ESE 6.9 mph - N/A   Clear
3:32 AM 19.0 °F 9.0 °F 9.3 °F 66% 30.07 in 10.0 mi ESE 8.1 mph - N/A   Clear
3:52 AM 18.5 °F 10.4 °F 9.5 °F 68% 30.06 in 10.0 mi ESE 5.8 mph - N/A   Clear
4:12 AM 18.5 °F 10.4 °F 9.5 °F 68% 30.05 in 10.0 mi ESE 5.8 mph - N/A   Clear
4:33 AM 18.1 °F 7.1 °F 9.3 °F 68% 30.05 in 10.0 mi ESE 9.2 mph - N/A   Clear
4:53 AM 18.1 °F 7.9 °F 9.1 °F 68% 30.04 in 10.0 mi East 8.1 mph - N/A   Clear
5:13 AM 18.1 °F 8.9 °F 9.3 °F 68% 30.01 in 10.0 mi ESE 6.9 mph - N/A   Clear
5:33 AM 18.1 °F 10.0 °F 9.9 °F 70% 30.00 in 10.0 mi ESE 5.8 mph - N/A   Clear
5:53 AM 18.3 °F 11.5 °F 10.4 °F 71% 30.00 in 10.0 mi ESE 4.6 mph - N/A   Clear
6:13 AM 18.0 °F - 10.4 °F 72% 30.00 in 10.0 mi Calm Calm - N/A   Clear
6:33 AM 18.1 °F - 10.9 °F 73% 29.99 in 10.0 mi Calm Calm - N/A   Clear
6:53 AM 18.5 °F 11.7 °F 11.3 °F 73% 29.97 in 10.0 mi East 4.6 mph - N/A   Clear
7:13 AM 19.0 °F 10.0 °F 11.5 °F 72% 29.95 in 10.0 mi ESE 6.9 mph - N/A   Clear
7:33 AM 19.2 °F 9.3 °F 11.8 °F 73% 29.93 in 10.0 mi East 8.1 mph - N/A   Clear
7:54 AM 19.4 °F 11.5 °F 12.2 °F 74% 29.93 in 10.0 mi East 5.8 mph - N/A   Clear
8:14 AM 20.1 °F 11.3 °F 12.2 °F 71% 29.93 in 10.0 mi East 6.9 mph - N/A   Clear
8:34 AM 20.7 °F 11.9 °F 12.7 °F 71% 29.91 in 10.0 mi East 6.9 mph - N/A   Clear
8:54 AM 21.2 °F 14.9 °F 13.1 °F 71% 29.91 in 10.0 mi ESE 4.6 mph - N/A   Clear
9:14 AM 22.1 °F 17.4 °F 13.5 °F 69% 29.91 in 10.0 mi East 3.5 mph - N/A   Clear
9:34 AM 23.5 °F 16.4 °F 13.8 °F 66% 29.90 in 10.0 mi ESE 5.8 mph - N/A   Clear
9:54 AM 24.6 °F 17.7 °F 14.2 °F 65% 29.89 in 10.0 mi ESE 5.8 mph - N/A   Clear
10:14 AM 25.7 °F 16.4 °F 14.7 °F 63% 29.87 in 10.0 mi SE 9.2 mph - N/A   Clear
10:35 AM 27.0 °F 20.5 °F 15.4 °F 62% 29.84 in 10.0 mi ESE 5.8 mph - N/A   Clear
10:55 AM 29.1 °F 21.3 °F 16.0 °F 58% 29.82 in 10.0 mi East 8.1 mph - N/A   Clear
11:15 AM 30.9 °F 24.3 °F 16.2 °F 54% 29.80 in 10.0 mi ESE 6.9 mph 18.4 mph N/A   Clear
11:35 AM 32.0 °F 25.6 °F 16.0 °F 52% 29.78 in 10.0 mi ESE 6.9 mph 17.3 mph N/A   Clear
11:55 AM 32.9 °F 25.9 °F 15.6 °F 49% 29.76 in 10.0 mi ESE 8.1 mph 18.4 mph N/A   Clear
12:15 PM 33.8 °F 25.8 °F 16.0 °F 48% 29.73 in 10.0 mi East 10.4 mph - N/A   Clear
12:35 PM 35.6 °F 29.2 °F 15.4 °F 44% 29.71 in 10.0 mi East 8.1 mph - N/A   Clear
12:55 PM 36.0 °F 31.1 °F 14.7 °F 42% 29.69 in 10.0 mi ESE 5.8 mph - N/A   Scattered Clouds
1:15 PM 37.4 °F 30.8 °F 14.2 °F 39% 29.68 in 10.0 mi ESE 9.2 mph - N/A   Overcast
1:35 PM 37.6 °F 31.0 °F 12.9 °F 36% 29.67 in 10.0 mi ESE 9.2 mph 18.4 mph N/A   Overcast
1:56 PM 37.4 °F 31.4 °F 14.0 °F 38% 29.65 in 10.0 mi ESE 8.1 mph - N/A   Overcast
2:16 PM 36.0 °F 29.0 °F 21.4 °F 55% 29.64 in 4.0 mi ESE 9.2 mph 17.3 mph N/A Snow Light Snow
2:31 PM 33.3 °F 27.9 °F 24.4 °F 70% 29.63 in 1.5 mi ESE 5.8 mph - N/A Snow Light Snow
2:51 PM 32.2 °F 23.8 °F 26.8 °F 80% 29.62 in 1.0 mi ESE 10.4 mph - N/A Snow Light Snow
3:11 PM 31.8 °F 28.5 °F 28.4 °F 87% 29.61 in 0.8 mi SE 3.5 mph - N/A Snow Light Snow
3:31 PM 31.8 °F 28.5 °F 28.4 °F 87% 29.61 in 1.8 mi SSE 3.5 mph - N/A Snow Light Snow
3:51 PM 31.8 °F 27.3 °F 29.3 °F 90% 29.60 in 1.0 mi SE 4.6 mph - N/A Snow Light Snow
4:11 PM 32.0 °F 26.4 °F 29.7 °F 91% 29.60 in 1.0 mi SSE 5.8 mph - N/A Snow Light Snow
4:31 PM 32.0 °F 24.8 °F 30.0 °F 92% 29.59 in 1.0 mi SSE 8.1 mph - N/A Snow Light Snow
4:52 PM 32.0 °F 25.6 °F 29.3 °F 90% 29.59 in 1.0 mi SE 6.9 mph - N/A Snow Light Snow
5:12 PM 31.5 °F 22.3 °F 28.2 °F 88% 29.59 in 1.2 mi SE 11.5 mph - N/A Snow Light Snow
5:32 PM 31.1 °F 23.7 °F 28.4 °F 90% 29.58 in 0.8 mi SE 8.1 mph - N/A Snow Light Snow
5:52 PM 30.9 °F 25.2 °F 28.8 °F 92% 29.57 in 0.5 mi SE 5.8 mph - N/A Snow Snow
6:12 PM 31.1 °F 26.4 °F 28.4 °F 90% 29.56 in 1.0 mi SE 4.6 mph - N/A Snow Light Snow
6:32 PM 31.1 °F 27.7 °F 28.4 °F 90% 29.55 in 0.8 mi ESE 3.5 mph - N/A Snow Light Snow
6:52 PM 31.1 °F 26.4 °F 28.4 °F 90% 29.55 in 1.0 mi SSE 4.6 mph - N/A Snow Light Snow
7:12 PM 30.9 °F 25.2 °F 28.4 °F 90% 29.55 in 2.5 mi SSE 5.8 mph - N/A Snow Light Snow
7:33 PM 30.7 °F 24.1 °F 28.0 °F 90% 29.54 in 1.8 mi SSE 6.9 mph - N/A Snow Light Snow
7:53 PM 30.6 °F 24.7 °F 27.9 °F 90% 29.54 in 2.0 mi SE 5.8 mph - N/A Snow Light Snow
8:13 PM 30.2 °F 26.7 °F 28.0 °F 92% 29.54 in 1.8 mi SSE 3.5 mph - N/A Snow Light Snow
8:33 PM 30.2 °F - 28.4 °F 93% 29.53 in 3.0 mi Calm Calm - N/A Snow Light Snow
8:53 PM 30.2 °F - 28.4 °F 93% 29.52 in 7.0 mi Calm Calm - N/A Snow Light Snow
9:13 PM 30.2 °F - 28.4 °F 93% 29.52 in 5.0 mi Calm Calm - N/A Snow Light Snow
9:33 PM 30.6 °F - 28.6 °F 92% 29.52 in 4.0 mi Calm Calm - N/A Snow Light Snow
9:53 PM 30.2 °F 25.4 °F 28.2 °F 92% 29.51 in 7.0 mi SSE 4.6 mph - N/A Snow Light Snow
10:14 PM 30.4 °F - 28.2 °F 92% 29.50 in 5.0 mi Calm Calm - N/A Snow Light Snow
10:34 PM 30.6 °F - 28.2 °F 91% 29.50 in 3.0 mi Calm Calm - N/A Snow Light Snow
10:54 PM 30.7 °F 26.0 °F 28.4 °F 91% 29.50 in 4.0 mi SSE 4.6 mph - N/A Snow Light Snow
11:14 PM 30.7 °F 26.0 °F 28.8 °F 92% 29.49 in 2.0 mi SSE 4.6 mph - N/A Snow Light Snow
11:54 PM 31.8 °F 22.3 °F 29.1 °F 90% 29.49 in 2.5 mi West 12.7 mph 24.2 mph N/A Snow Light Snow